Wright-Patt AFB, OH

12:55 AM EDT on June 24, 2017 (GMT -0400)
Wright-Patterson Air Force Base

Weather History for KFFO - June, 2014

Change the Weather History Date:

Friday, June 6, 2014

  Actual Average Record
Temperature  
Mean Temperature 64 °F -  
Max Temperature 78 °F 75 °F 93 °F (1999)
Min Temperature 51 °F 56 °F 33 °F (1998)
Growing Degree Days 14 (Base 50)    
Moisture  
Dew Point 51 °F    
Average Humidity 65    
Maximum Humidity 94    
Minimum Humidity 34    
Precipitation  
Precipitation 0.00 in - - ()
Sea Level Pressure  
Sea Level Pressure 30.01 in    
Wind  
Wind Speed 2 mph (NNE)    
Max Wind Speed 7 mph    
Max Gust Speed -    
Visibility 10 miles    
Events Fog    
Averages and records for this station are not official NWS values.
T = Trace of Precipitation, MM = Missing Value Source: NWS Daily Summary

Daily Weather History Graph

Daily Weather History Graph

Search for Another Location

Airport or City:

Trip Planner

Search our weather history database for the weather conditions in past years. The results will help you decide how hot, cold, wet, or windy it might be!

Date:

Astronomy

Jun. 06, 2014 Rise Set
Actual Time 6:08 AM EDT 9:01 PM EDT
Civil Twilight 5:36 AM EDT 9:34 PM EDT
Nautical Twilight 4:55 AM EDT 10:14 PM EDT
Astronomical Twilight 4:08 AM EDT 11:02 PM EDT
Moon 2:20 PM EDT (6/6) 1:58 AM EDT (6/6)
Length of Visible Light 15h 58m
Length of Day
14h 53m
First Quarter, 58% of the Moon is Illuminated
Jun 6
First Quarter
Jun 13
Full
Jun 19
Last Quarter
Jun 27
New
Jul 5
First Quarter

Hourly Weather History & Observations

Time (EDT) Temp. Dew Point Humidity Pressure Visibility Wind Dir Wind Speed Gust Speed Precip Events Conditions
12:58 AM 55.9 °F 52.7 °F 89% 29.99 in 10.0 mi West 1.2 mph - N/A   Clear
1:58 AM 57.7 °F 52.2 °F 82% 29.96 in 10.0 mi Calm Calm - N/A   Clear
2:58 AM 55.8 °F 50.9 °F 84% 29.96 in 10.0 mi Calm Calm - N/A   Partly Cloudy
3:58 AM 53.6 °F 50.2 °F 88% 29.98 in 10.0 mi NNE 2.3 mph - N/A   Clear
4:58 AM 54.1 °F 51.8 °F 92% 29.99 in 10.0 mi Calm Calm - N/A   Clear
5:28 AM 53.6 °F 50.0 °F 88% 30.00 in 9.0 mi Calm Calm - N/A   Clear
5:38 AM 53.6 °F 51.8 °F 94% 30.00 in 10.0 mi Calm Calm - N/A   Partly Cloudy
5:48 AM 51.8 °F 50.0 °F 94% 30.01 in 10.0 mi Calm Calm - N/A Fog Shallow Fog
5:58 AM 52.0 °F 50.0 °F 93% 30.01 in 10.0 mi Calm Calm - N/A Fog Shallow Fog
6:58 AM 54.0 °F 50.2 °F 87% 30.03 in 10.0 mi Calm Calm - N/A   Clear
7:58 AM 57.7 °F 53.4 °F 85% 30.03 in 10.0 mi NE 1.2 mph - N/A   Partly Cloudy
8:38 AM 60.8 °F 53.6 °F 77% 30.03 in 10.0 mi Variable 1.2 mph - N/A   Partly Cloudy
8:58 AM 63.1 °F 54.3 °F 73% 30.03 in 10.0 mi North 2.3 mph - N/A   Partly Cloudy
9:58 AM 68.2 °F 51.3 °F 55% 30.04 in 10.0 mi Variable 1.2 mph - N/A   Clear
10:58 AM 71.4 °F 48.2 °F 44% 30.03 in 10.0 mi Calm Calm - N/A   Clear
11:58 AM 72.7 °F 46.4 °F 39% 30.03 in 10.0 mi East 5.8 mph - 0.00 in   Clear
12:58 PM 74.1 °F 45.3 °F 36% 30.02 in 10.0 mi SE 6.9 mph - N/A   Clear
1:58 PM 75.7 °F 47.7 °F 37% 30.01 in 10.0 mi Variable 5.8 mph - N/A   Clear
2:58 PM 76.3 °F 47.7 °F 36% 30.01 in 10.0 mi North 6.9 mph - N/A   Clear
3:58 PM 77.0 °F 46.8 °F 34% 30.01 in 10.0 mi NNW 5.8 mph - N/A   Clear
4:58 PM 77.2 °F 48.2 °F 36% 30.00 in 10.0 mi NNE 2.3 mph - N/A   Clear
5:58 PM 77.7 °F 48.6 °F 36% 29.98 in 10.0 mi NE 1.2 mph - N/A   Clear
6:58 PM 78.1 °F 47.5 °F 34% 29.98 in 10.0 mi NNW 3.5 mph - N/A   Clear
7:58 PM 76.5 °F 48.2 °F 37% 29.99 in 10.0 mi NE 3.5 mph - N/A   Clear
8:58 PM 74.1 °F 54.1 °F 50% 30.00 in 10.0 mi NNE 2.3 mph - N/A   Clear
9:58 PM 66.4 °F 55.6 °F 68% 30.01 in 10.0 mi East 1.2 mph - N/A   Scattered Clouds
10:38 PM 64.4 °F 55.4 °F 73% 30.03 in 3.0 mi Calm Calm - N/A   Haze
10:48 PM 62.6 °F 53.6 °F 72% 30.03 in 10.0 mi SW 2.3 mph - N/A   Clear
10:58 PM 63.1 °F 54.1 °F 72% 30.03 in 10.0 mi SSW 2.3 mph - N/A   Clear
11:58 PM 64.4 °F 55.8 °F 73% 30.03 in 10.0 mi NNE 2.3 mph - N/A   Clear